Weather History for Bentonville, AR

Change the Weather History Date:

Sunday, October 28, 2012

  Actual Average Record
Temperature  
Mean Temperature 40 °F -  
Max Temperature 53 °F 66 °F 85 °F (1950)
Min Temperature 28 °F 40 °F 22 °F (1957)
Degree Days  
Heating Degree Days 24    
Moisture  
Dew Point 27 °F    
Average Humidity 60    
Maximum Humidity 86    
Minimum Humidity 35    
Precipitation  
Precipitation 0.00 in - - ()
Sea Level Pressure  
Sea Level Pressure 30.24 in    
Wind  
Wind Speed 4 mph (NNE)    
Max Wind Speed 10 mph    
Max Gust Speed -    
Visibility 10 miles    
Events      
Averages and records for this station are not official NWS values.
T = Trace of Precipitation, MM = Missing Value Source: NWS Daily Summary

Daily Weather History Graph

Daily Weather History Graph

Search for Another Location

Airport:

Trip Planner

Search our weather history database for the weather conditions in past years. The results will help you decide how hot, cold, wet, or windy it might be!

Date:

Astronomy

Oct. 28, 2012 Rise Set
Actual Time 7:36 AM CDT 6:24 PM CDT
Civil Twilight 7:10 AM CDT 6:50 PM CDT
Nautical Twilight 6:39 AM CDT 7:20 PM CDT
Astronomical Twilight 6:09 AM CDT 7:50 PM CDT
Moon 5:42 PM CDT (10/28) 6:31 AM CDT (10/28)
Length of Visible Light 11h 40m
Length of Day
10h 47m
Waxing Gibbous, 99% of the Moon is Illuminated
Oct 28
Waxing Gibbous
Oct 29
Full
Nov 6
Last Quarter
Nov 13
New
Nov 20
First Quarter

Hourly Weather History & Observations

Time (CDT) Temp. Windchill Dew Point Humidity Pressure Visibility Wind Dir Wind Speed Gust Speed Precip Events Conditions
12:55 AM 33.8 °F 30.8 °F 28.4 °F 81% 30.24 in 10.0 mi North 3.5 mph - N/A   Clear
1:15 AM 33.8 °F 30.8 °F 26.6 °F 75% 30.24 in 10.0 mi North 3.5 mph - N/A   Clear
1:35 AM 33.8 °F 27.7 °F 26.6 °F 75% 30.24 in 10.0 mi NNE 6.9 mph - N/A   Clear
1:55 AM 33.8 °F 27.7 °F 26.6 °F 75% 30.24 in 10.0 mi North 6.9 mph - N/A   Clear
2:15 AM 33.8 °F 30.8 °F 26.6 °F 75% 30.24 in 10.0 mi North 3.5 mph - N/A   Clear
2:55 AM 33.8 °F 30.8 °F 26.6 °F 75% 30.24 in 10.0 mi NNE 3.5 mph - N/A   Clear
3:15 AM 32.0 °F 27.5 °F 26.6 °F 80% 30.24 in 10.0 mi NNE 4.6 mph - N/A   Clear
3:35 AM 32.0 °F 26.4 °F 26.6 °F 80% 30.23 in 10.0 mi NE 5.8 mph - N/A   Clear
4:15 AM 32.0 °F 28.7 °F 26.6 °F 80% 30.22 in 10.0 mi NNE 3.5 mph - N/A   Clear
4:35 AM 30.2 °F 25.4 °F 26.6 °F 86% 30.22 in 10.0 mi NE 4.6 mph - N/A   Clear
4:55 AM 30.2 °F 25.4 °F 24.8 °F 80% 30.21 in 10.0 mi ENE 4.6 mph - N/A   Clear
5:16 AM 30.2 °F 26.7 °F 24.8 °F 80% 30.22 in 10.0 mi ENE 3.5 mph - N/A   Clear
5:35 AM 30.2 °F - 24.8 °F 80% 30.22 in 10.0 mi Calm Calm - N/A   Clear
5:55 AM 30.2 °F 25.4 °F 24.8 °F 80% 30.22 in 10.0 mi NE 4.6 mph - N/A   Clear
6:16 AM 30.2 °F - 24.8 °F 80% 30.22 in 10.0 mi Calm Calm - N/A   Clear
6:35 AM 30.2 °F 26.7 °F 24.8 °F 80% 30.22 in 10.0 mi NE 3.5 mph - N/A   Clear
6:55 AM 30.2 °F - 24.8 °F 80% 30.24 in 10.0 mi Calm Calm - N/A   Clear
7:35 AM 28.4 °F - 24.8 °F 86% 30.25 in 8.0 mi Calm Calm - N/A   Clear
7:55 AM 28.4 °F 24.6 °F 24.8 °F 86% 30.25 in 7.0 mi North 3.5 mph - N/A   Clear
8:15 AM 30.2 °F - 26.6 °F 86% 30.26 in 10.0 mi Calm Calm - N/A   Clear
8:35 AM 32.0 °F - 26.6 °F 80% 30.27 in 10.0 mi Calm Calm - N/A   Clear
8:55 AM 33.8 °F - 26.6 °F 75% 30.28 in 10.0 mi Calm Calm - N/A   Clear
9:15 AM 35.6 °F - 28.4 °F 75% 30.28 in 10.0 mi Calm Calm - N/A   Clear
9:55 AM 39.2 °F 37.0 °F 28.4 °F 65% 30.29 in 10.0 mi NNE 3.5 mph - N/A   Clear
10:15 AM 39.2 °F 35.0 °F 28.4 °F 65% 30.29 in 10.0 mi NNE 5.8 mph - N/A   Clear
10:55 AM 42.8 °F 39.3 °F 30.2 °F 61% 30.29 in 10.0 mi ENE 5.8 mph - N/A   Clear
11:15 AM 44.6 °F 39.7 °F 30.2 °F 57% 30.28 in 10.0 mi NNE 9.2 mph - N/A   Clear
11:35 AM 44.6 °F 39.7 °F 28.4 °F 53% 30.28 in 10.0 mi NE 9.2 mph - N/A   Clear
11:56 AM 46.4 °F 41.5 °F 28.4 °F 50% 30.28 in 10.0 mi ENE 10.4 mph - N/A   Clear
12:15 PM 46.4 °F 42.4 °F 28.4 °F 50% 30.28 in 10.0 mi NE 8.1 mph - N/A   Clear
12:35 PM 48.2 °F - 28.4 °F 46% 30.27 in 10.0 mi NE 5.8 mph - N/A   Clear
12:56 PM 48.2 °F - 28.4 °F 46% 30.26 in 10.0 mi NE 6.9 mph - N/A   Clear
1:15 PM 48.2 °F - 28.4 °F 46% 30.25 in 10.0 mi North 5.8 mph - N/A   Clear
1:35 PM 51.8 °F - 28.4 °F 41% 30.25 in 10.0 mi NNE 10.4 mph - N/A   Clear
2:15 PM 53.6 °F - 28.4 °F 38% 30.23 in 10.0 mi NE 8.1 mph - N/A   Clear
2:35 PM 53.6 °F - 26.6 °F 35% 30.23 in 10.0 mi NE 4.6 mph - N/A   Clear
2:55 PM 53.6 °F - 28.4 °F 38% 30.22 in 10.0 mi NW 5.8 mph - N/A   Clear
3:16 PM 53.6 °F - 26.6 °F 35% 30.22 in 10.0 mi North 9.2 mph - N/A   Clear
3:35 PM 53.6 °F - 26.6 °F 35% 30.21 in 10.0 mi NE 3.5 mph - N/A   Clear
3:55 PM 53.6 °F - 26.6 °F 35% 30.21 in 10.0 mi Calm Calm - N/A   Clear
4:16 PM 53.6 °F - 26.6 °F 35% 30.21 in 10.0 mi NNW 6.9 mph - N/A   Clear
4:35 PM 53.6 °F - 26.6 °F 35% 30.20 in 10.0 mi NE 6.9 mph - N/A   Clear
4:55 PM 53.6 °F - 26.6 °F 35% 30.20 in 10.0 mi NNE 5.8 mph - N/A   Clear
5:35 PM 51.8 °F - 24.8 °F 35% 30.20 in 10.0 mi North 4.6 mph - N/A   Clear
5:55 PM 51.8 °F - 26.6 °F 38% 30.20 in 10.0 mi NNE 5.8 mph - N/A   Clear
6:15 PM 48.2 °F - 24.8 °F 40% 30.21 in 10.0 mi North 5.8 mph - N/A   Clear
6:36 PM 48.2 °F - 24.8 °F 40% 30.21 in 10.0 mi North 3.5 mph - N/A   Clear
6:55 PM 46.4 °F - 26.6 °F 46% 30.22 in 10.0 mi Calm Calm - N/A   Clear
7:15 PM 46.4 °F 45.2 °F 28.4 °F 50% 30.22 in 10.0 mi NNE 3.5 mph - N/A   Clear
7:55 PM 44.6 °F 42.2 °F 28.4 °F 53% 30.22 in 10.0 mi North 4.6 mph - N/A   Clear
8:15 PM 44.6 °F 42.2 °F 26.6 °F 49% 30.22 in 10.0 mi North 4.6 mph - N/A   Clear
8:35 PM 42.8 °F 41.1 °F 28.4 °F 57% 30.22 in 10.0 mi North 3.5 mph - N/A   Clear
8:55 PM 42.8 °F 39.3 °F 28.4 °F 57% 30.22 in 10.0 mi NNE 5.8 mph - N/A   Clear
9:15 PM 42.8 °F 41.1 °F 28.4 °F 57% 30.22 in 10.0 mi North 3.5 mph - N/A   Clear
9:35 PM 41.0 °F 37.1 °F 28.4 °F 61% 30.23 in 10.0 mi NNE 5.8 mph - N/A   Clear
10:15 PM 41.0 °F 38.0 °F 26.6 °F 57% 30.24 in 10.0 mi NNE 4.6 mph - N/A   Clear
10:35 PM 39.2 °F 35.0 °F 26.6 °F 61% 30.24 in 10.0 mi NE 5.8 mph - N/A   Clear
11:15 PM 39.2 °F 37.0 °F 26.6 °F 61% 30.25 in 10.0 mi NE 3.5 mph - N/A   Clear
11:35 PM 39.2 °F - 26.6 °F 61% 30.25 in 10.0 mi Calm Calm - N/A   Clear
11:55 PM 37.4 °F - 26.6 °F 65% 30.25 in 10.0 mi Calm Calm - N/A   Clear